This demonstration page uses our WeatherBlox Daily Observations layout. Learn more.

Left ArrowRight Arrow

Hourly Observations for September 14, 2016

Temp ( °F °C ) Dew Point ( °F °C ) Humidity (%) Winds ( mph kmh ) Pressure ( in mb ) Visibility ( mi km ) Precip ( " mm )
12:15 am 00:15 Clear 77 25 70 21 79 79 S 9 15 30.12 1020 10 16 N/A
12:35 am 00:35 Clear 75 24 70 21 83 83 S 7 11 30.12 1020 10 16 N/A
12:55 am 00:55 Clear 73 23 70 21 89 89 S 6 9 30.12 1020 10 16 N/A
1:15 am 01:15 Clear 73 23 70 21 89 89 SSE 5 7 30.12 1020 10 16 N/A
1:35 am 01:35 Clear 73 23 68 20 83 83 SSE 7 11 30.12 1020 10 16 N/A
1:55 am 01:55 Clear 73 23 68 20 83 83 SSE 5 7 30.12 1020 10 16 N/A
2:15 am 02:15 Clear 72 22 68 20 88 88 SSE 3 6 30.09 1019 10 16 N/A
2:35 am 02:35 Clear 72 22 68 20 88 88 S 3 6 30.09 1019 10 16 N/A
2:55 am 02:55 Clear 70 21 68 20 94 94 S 3 6 30.09 1019 10 16 N/A
3:15 am 03:15 Clear 70 21 68 20 94 94 S 3 6 30.09 1019 10 16 N/A
3:35 am 03:35 Clear 70 21 68 20 94 94 N N/A 30.09 1019 10 16 N/A
3:55 am 03:55 Clear 68 20 68 20 100 100 N N/A 30.09 1019 10 16 N/A
4:15 am 04:15 Clear 68 20 68 20 100 100 N N/A 30.09 1019 10 16 N/A
4:35 am 04:35 Clear 68 20 68 20 100 100 N N/A 30.09 1019 10 16 N/A
4:55 am 04:55 Clear 66 19 66 19 100 100 N N/A 30.12 1020 10 16 N/A
5:15 am 05:15 Clear 66 19 66 19 100 100 N N/A 30.12 1020 10 16 N/A
5:35 am 05:35 Clear 64 18 64 18 100 100 N N/A 30.12 1020 10 16 N/A
5:55 am 05:55 Clear 64 18 64 18 100 100 N N/A 30.12 1020 10 16 N/A
6:15 am 06:15 Clear 64 18 64 18 100 100 N N/A 30.12 1020 10 16 N/A
6:35 am 06:35 Clear 64 18 64 18 100 100 N N/A 30.12 1020 10 16 N/A
6:55 am 06:55 Sunny 64 18 64 18 100 100 N N/A 30.12 1020 10 16 N/A
7:15 am 07:15 Sunny 64 18 64 18 100 100 N N/A 30.15 1021 10 16 N/A
7:35 am 07:35 Sunny 66 19 66 19 100 100 N N/A 30.15 1021 10 16 N/A
7:55 am 07:55 Sunny 68 20 68 20 100 100 N N/A 30.15 1021 10 16 N/A
8:15 am 08:15 Sunny 70 21 70 21 100 100 N N/A 30.15 1021 10 16 N/A
8:35 am 08:35 Sunny 72 22 70 21 94 94 N N/A 30.15 1021 10 16 N/A
8:55 am 08:55 Sunny 73 23 70 21 89 89 N N/A 30.15 1021 10 16 N/A
9:15 am 09:15 Sunny 77 25 70 21 79 79 WNW 3 6 30.15 1021 10 16 N/A
9:35 am 09:35 Sunny 79 26 66 19 65 65 NW 7 11 30.15 1021 10 16 N/A
9:55 am 09:55 Sunny 82 28 68 20 62 62 N 3 6 30.15 1021 10 16 N/A
10:15 am 10:15 Sunny 86 30 64 18 49 49 NW 12 19 30.15 1021 10 16 N/A
10:35 am 10:35 Sunny 86 30 66 19 52 52 NW 14 22 30.15 1021 10 16 N/A
10:55 am 10:55 Sunny 86 30 64 18 49 49 NW 13 20 30.15 1021 10 16 N/A
11:15 am 11:15 Sunny 86 30 63 17 46 46 NW 14 22 30.15 1021 10 16 N/A
11:35 am 11:35 Sunny 88 31 59 15 38 38 NNW 12 19 30.15 1021 10 16 N/A
11:55 am 11:55 Sunny 88 31 59 15 38 38 NW 13 20 30.12 1020 10 16 N/A
12:15 pm 12:15 Sunny 88 31 59 15 38 38 NNW 8 13 30.12 1020 10 16 N/A
12:35 pm 12:35 Sunny 88 31 59 15 38 38 WNW 12 19 30.12 1020 10 16 N/A
12:55 pm 12:55 Sunny 88 31 59 15 38 38 NW 9 15 30.12 1020 10 16 N/A
1:15 pm 13:15 Sunny 88 31 59 15 38 38 NNW 7 11 30.12 1020 10 16 N/A
1:35 pm 13:35 Sunny 90 32 59 15 36 36 WNW 14 22 30.06 1018 10 16 N/A
1:55 pm 13:55 Sunny 90 32 59 15 36 36 NNW 8 13 30.06 1018 10 16 N/A
2:15 pm 14:15 Sunny 90 32 59 15 36 36 NW 12 19 30.06 1018 10 16 N/A
2:35 pm 14:35 Sunny 91 33 57 14 32 32 W 5 7 30.06 1018 10 16 N/A
2:55 pm 14:55 Sunny 91 33 57 14 32 32 WNW 7 11 30.03 1017 10 16 N/A
3:15 pm 15:15 Sunny 91 33 59 15 34 34 W 8 13 30.03 1017 10 16 N/A
3:35 pm 15:35 Sunny 91 33 55 13 30 30 WNW 13 20 30.03 1017 10 16 N/A
3:55 pm 15:55 Sunny 91 33 57 14 32 32 N N/A 30.03 1017 10 16 N/A
4:15 pm 16:15 Sunny 91 33 59 15 34 34 NNW 5 7 30.03 1017 10 16 N/A
4:35 pm 16:35 Sunny 91 33 57 14 32 32 W 7 11 30.03 1017 10 16 N/A
4:55 pm 16:55 Sunny 91 33 57 14 32 32 WSW 6 9 30.03 1017 10 16 N/A
5:15 pm 17:15 Sunny 91 33 55 13 30 30 NNW 9 15 30.03 1017 10 16 N/A
5:35 pm 17:35 Sunny 91 33 55 13 30 30 N 5 7 30.03 1017 10 16 N/A
5:55 pm 17:55 Sunny 91 33 55 13 30 30 N 5 7 30.03 1017 10 16 N/A
6:15 pm 18:15 Sunny 90 32 55 13 31 31 N N/A 30.03 1017 10 16 N/A
6:35 pm 18:35 Sunny 90 32 55 13 31 31 NE 5 7 30.03 1017 10 16 N/A
6:55 pm 18:55 Sunny 88 31 55 13 33 33 N N/A 30.03 1017 10 16 N/A
7:15 pm 19:15 Sunny 88 31 57 14 35 35 N N/A 30.03 1017 10 16 N/A
7:35 pm 19:35 Clear 82 28 59 15 45 45 N N/A 30.06 1018 10 16 N/A
7:55 pm 19:55 Clear 81 27 61 16 51 51 N N/A 30.06 1018 10 16 N/A
8:15 pm 20:15 Clear 79 26 63 17 58 58 N N/A 30.06 1018 10 16 N/A
8:35 pm 20:35 Clear 77 25 63 17 61 61 NW 5 7 30.09 1019 10 16 N/A
8:55 pm 20:55 Clear 73 23 64 18 74 74 WNW 10 17 30.09 1019 7 11 N/A
9:15 pm 21:15 Clear 73 23 64 18 74 74 WNW 7 11 30.09 1019 10 16 N/A
9:35 pm 21:35 Clear 75 24 61 16 61 61 NW 10 17 30.09 1019 10 16 N/A
9:55 pm 21:55 Clear 77 25 61 16 57 57 NNE 12 19 30.09 1019 10 16 N/A
10:15 pm 22:15 Clear 79 26 63 17 58 58 N 10 17 30.09 1019 10 16 N/A
10:35 pm 22:35 Clear 79 26 64 18 61 61 N 12 19 30.12 1020 10 16 N/A
10:55 pm 22:55 Clear 79 26 64 18 61 61 NNE 9 15 30.12 1020 10 16 N/A
11:15 pm 23:15 Clear 79 26 64 18 61 61 NNE 9 15 30.12 1020 10 16 N/A
11:35 pm 23:35 Clear 77 25 64 18 65 65 NNE 9 15 30.15 1021 10 16 N/A
11:55 pm 23:55 Clear 77 25 64 18 65 65 NNE 7 11 30.15 1021 10 16 N/A

Powered by AerisWeather